Regional Weather Roundup
Issued by NWS State College, PA

Home | Current Version | Previous Version | Graphics & Text | Print | Product List | Glossary Off
Versions: 1 2 3 4 5 6 7 8 9 10 11 12 13 14 15 16 17 18 19 20 21 22 23 24 25 26 27 28 29 30 31 32 33 34 35 36 37 38 39 40 41 42 43 44 45 46 47 48 49 50

187
ASUS41 KCTP 250210
RWRCTP

REGIONAL WEATHER ROUNDUP
NATIONAL WEATHER SERVICE STATE COLLEGE PA
1000 PM EDT SUN JUL 24 2016

Note: "fair" indicates few or no clouds below 12,000 feet with no
significant weather and/or obstructions to visibility.

* = STATION THAT DOES NOT REPORT PRECIPITATION /E.G. RAIN...SNOW...ETC/
    THUNDER OR FOG.

PAZ002>004-007>009-013>016-020>023-029>032-250300-
WESTERN PENNSYLVANIA

CITY           SKY/WX    TMP DP  RH WIND       PRES   REMARKS
ERIE           PTCLDY    77  71  82 S7        29.96S
MEADVILLE      MOCLDY    73  69  87 CALM      30.01S
FRANKLIN*      PTCLDY    70  66  88 S3        30.04F
NEW CASTLE     FAIR      74  73  97 S5        30.02S
BEAVER COUNTY  NOT AVBL
BUTLER*        CLOUDY    72  70  94 CALM      30.05S
PITTSBURGH INT CLOUDY    73  71  93 S5        30.02S
PITTSBURGH     CLOUDY    73  69  87 SE3       30.02S FOG
INDIANA*       MOCLDY    72  72 100 CALM      30.07S
LATROBE        CLEAR     72  72 100 CALM      30.04F
WASHINGTON CO* PTCLDY    72  70  94 CALM      30.04R
$$

PAZ004>006-010>012-017>019-024>028-033>037-041-042-045-046-049>053-250300-
CENTRAL PENNSYLVANIA

CITY           SKY/WX    TMP DP  RH WIND       PRES   REMARKS
BRADFORD       MOCLDY    72  66  81 CALM      30.05F
DUBOIS         CLOUDY    70  68  93 SW5       30.04S
CLEARFIELD     CLOUDY    72  69  90 SW3       30.04R
JOHNSTOWN      MOCLDY    70  65  84 W6        30.09S
ALTOONA        LGT RAIN  72  69  90 CALM      30.05R
STATE COLLEGE  CLOUDY    72  71  97 NW3       30.02F
WILLIAMSPORT   CLOUDY    80  67  64 NW5       29.97R
SELINSGROVE    PTCLDY    75  75 100 CALM      30.01R
FT INDIANTOWN  CLOUDY    77  72  83 SW2       30.00R
CAPITAL CITY   LGT RAIN  78  74  87 SW3       30.00S
HARRISBURG     LGT RAIN  79  75  87 VRB3      30.00S
YORK           CLOUDY    78  72  81 N3        30.02R
$$

PAZ038>040-043-044-047-048-054-055-060>062-067>071-250300-
EASTERN PENNSYLVANIA

CITY           SKY/WX    TMP DP  RH WIND       PRES   REMARKS
SCRANTON       CLOUDY    83  59  44 S7        29.98R
MOUNT POCONO   MOCLDY    68  61  78 CALM      30.06R
ALLENTOWN      PTCLDY    82  65  56 SW7       29.98R
QUAKERTOWN*    PTCLDY    81  66  61 CALM      30.01R
READING        CLOUDY    85  64  49 CALM      29.98R
LANCASTER      CLOUDY    81  66  60 W8        30.00R
COATESVILLE    CLOUDY    79  68  69 CALM      30.02R
POTTSTOWN      MOCLDY    82  67  60 S3        30.01R
BLUE BELL      PTCLDY    79  66  65 S3        29.99R
DOYLESTOWN     PTCLDY    81  64  56 SW6       29.99R
WILLOW GROVE   NOT AVBL
NORTH PHILA    PTCLDY    85  65  51 S6        30.00R
PHILADELPHIA   MOCLDY    82  65  56 S5        29.99R
$$




USA.gov is the U.S. government's official web portal to all federal, state and local government web resources and services.